Clarinda
Saturday 9:55 PM
Temperature41° (50°/28°)
Dew Point37°
Feels Like39°
Relative Humidity87
%
Visibility10
mi
Pressure1021.0
mb
Wind Direction
Wind Speed3
mph
Precipitation Today0.17"

Last 30 Observations

Time PresWx Temp DP Feels RH% Vsby Pressure Ceiling Direction Speed 1h Precip
9:35 PM 43° 36° 39°76
%
10
mi
1020.7
mb
9,000
ft
SSE
150°
6
mph
0.00"
9:15 PM 43° 36° 39°76
%
10
mi
1021.0
mb
9,000
ft
SE
140°
7
mph
0.00"
8:55 PM 43° 36° 39°76
%
10
mi
1020.7
mb
9,000
ft
SE
130°
6
mph
0.00"
8:35 PM 43° 36° 41°76
%
10
mi
1020.3
mb
9,500
ft
SSE
150°
3
mph
0.00"
8:15 PM 45° 36° 43°70
%
10
mi
1020.3
mb
9,500
ft
SE
140°
3
mph
0.00"
7:55 PM 45° 34° 41°66
%
10
mi
1020.0
mb
9,500
ft
ESE
110°
6
mph
0.00"
7:35 PM 45° 34° 66
%
10
mi
1020.3
mb
9,500
ft
Calm 0.00"
7:15 PM 45° 32° 42°61
%
10
mi
1020.3
mb
10,000
ft
ESE
120°
5
mph
0.00"
6:55 PM 46° 32° 43°57
%
10
mi
1020.3
mb
10,000
ft
SE
130°
7
mph
0.00"
6:35 PM 46° 30° 43°53
%
10
mi
1020.3
mb
10,000
ft
ESE
120°
6
mph
0.00"
6:15 PM 46° 30° 43°53
%
10
mi
1020.3
mb
10,000
ft
ESE
110°
6
mph
0.00"
5:55 PM 48° 28° 46°46
%
10
mi
1020.7
mb
10,000
ft
ESE
120°
6
mph
0.00"
5:35 PM 48° 27° 44°43
%
10
mi
1020.3
mb
10,000
ft
SE
130°
9
mph
0.00"
5:15 PM 50° 28° 43
%
0
mi
1020.7
mb
10,000
ft
ESE
120°
8
mph
0.00"
4:55 PM 48° 30° 44°50
%
10
mi
1020.7
mb
10,000
ft
E
90°
9
mph
0.00"
4:35 PM 48° 30° 45°50
%
10
mi
1020.7
mb
10,000
ft
E
90°
7
mph
0.00"
4:15 PM 48° 30° 45°50
%
10
mi
1021.0
mb
10,000
ft
ESE
110°
8
mph
0.00"
3:55 PM 48° 32° 45°53
%
10
mi
1021.0
mb
10,000
ft
ESE
110°
7
mph
0.00"
3:35 PM 46° 36° 43°66
%
10
mi
1021.3
mb
10,000
ft
E
90°
7
mph
0.00"
3:15 PM 46° 37° 42°71
%
10
mi
1021.7
mb
ESE
110°
9
mph
0.00"
2:55 PM 45° 37° 40°76
%
10
mi
1022.0
mb
NE
50°
8
mph
0.00"
2:35 PM 43° 34° 37°70
%
10
mi
1022.4
mb
ENE
60°
9
mph
0.00"
2:15 PM 41° 34° 35°75
%
10
mi
1023.0
mb
E
80°
10
mph
0.00"
1:55 PM 41° 34° 36°75
%
10
mi
1023.4
mb
ENE
60°
8
mph
Trace
1:35 PM 41° 34° 37°75
%
10
mi
1023.7
mb
E
80°
6
mph
0.00"
1:15 PM 41° 34° 36°75
%
10
mi
1024.1
mb
E
100°
7
mph
0.00"
12:55 PM 39° 32° 36°75
%
10
mi
1024.4
mb
Variable 5
mph
(G11)
Trace
12:35 PM 39° 34° 34°81
%
10
mi
1024.7
mb
ENE
60°
7
mph
0.00"
12:15 PM 37° 34° 34°87
%
10
mi
1024.7
mb
NNE
30°
5
mph
0.00"
11:55 AM 36° 32° 32°87
%
10
mi
1025.1
mb
N
350°
5
mph
Trace